Temperature
18 18 18 17 17 16 16 16 16 16 16 16 16 16 15 15 16 16 16 16 16 16 16 16 16 16 17 17 17 17 16 16 16 15 15 15 15 15 14 14 14 14 14
20 19 18 17 17 16 16 16 16 16 16 16 16 16 15 15 16 16 16 16 16 16 16 16 16 17 17 17 17 17 16 16 15 15 15 15 15 15 14 14 14 14 14
20 19 18 17 17 16 16 16 16 16 16 16 16 16 15 16 16 16 16 16 16 16 16 16 17 17 17 17 17 17 16 15 15 14 14 14 15 15 15 14 14 14 14
20 19 18 17 16 16 16 16 16 16 16 16 16 16 16 16 16 16 16 16 16 16 17 17 17 17 17 17 17 17 16 15 15 14 14 14 15 15 15 14 14 14 14
20 19 18 17 16 16 16 16 16 16 17 16 16 16 16 16 16 17 17 17 17 17 17 17 17 17 17 17 17 17 16 16 15 15 14 15 15 14 14 14 14 14 14
18 18 18 17 16 16 16 16 16 17 17 16 16 16 16 16 17 17 17 17 17 17 17 17 17 17 17 17 17 17 16 16 15 15 15 15 15 15 14 14 14 14 14
17 18 17 17 16 16 16 16 17 17 17 16 16 16 16 17 17 17 17 17 17 17 17 17 17 17 17 17 17 17 16 16 15 15 15 15 15 15 14 14 14 15 15
17 17 17 16 16 16 16 16 17 17 17 17 16 16 17 17 17 17 17 18 17 17 17 17 17 17 17 17 17 17 16 16 15 14 15 15 15 15 15 15 15 15 15
16 17 17 16 16 16 16 16 17 17 17 17 17 17 17 17 17 18 18 18 18 17 17 17 17 17 17 17 17 16 16 16 15 15 15 15 15 15 15 15 15 15 15
16 16 16 16 16 15 15 16 16 17 17 17 17 17 17 17 18 18 18 18 18 18 17 17 17 17 17 17 17 16 16 15 15 14 14 15 15 15 15 15 14 14 15
16 16 16 16 15 15 15 15 16 16 17 17 17 17 17 17 17 18 18 18 18 17 17 17 17 17 17 16 16 16 16 15 14 14 15 15 15 15 15 14 14 14 14
16 16 16 16 15 15 15 15 15 16 16 16 16 16 16 15 16 17 17 17 17 17 17 17 16 16 16 16 16 15 15 15 14 14 14 14 14 14 14 14 14 14 14
16 16 16 16 16 15 15 15 15 15 15 15 15 16 15 15 15 16 17 17 17 17 17 16 16 15 15 15 15 15 15 14 14 14 14 14 14 14 14 14 14 14 13
16 16 16 16 15 15 15 15 15 14 15 14 14 15 15 15 15 15 16 16 16 16 16 16 15 15 14 14 14 14 14 14 14 14 14 14 14 14 13 13 13 13 13
16 16 15 15 15 15 15 15 15 14 15 14 14 15 14 15 15 15 15 15 15 15 15 15 15 14 14 14 14 14 14 14 14 13 13 13 13 13 13 13 13 13 12
16 15 15 15 15 15 15 15 15 14 14 14 14 15 14 14 15 15 14 14 14 14 14 14 14 14 14 14 14 14 13 13 13 13 13 13 13 13 13 13 12 12 12
16 15 15 15 15 15 15 15 15 14 14 14 14 14 14 14 14 14 14 14 14 14 14 14 14 14 14 14 14 13 13 13 13 13 13 13 13 13 13 12 12 12 12
15 15 15 15 15 15 15 15 14 14 14 14 14 14 14 14 14 14 14 14 14 14 14 14 14 13 13 13 13 13 13 13 13 13 13 13 13 12 12 12 12 12 11
15 15 15 15 15 15 15 14 14 14 14 14 14 14 14 14 14 14 14 14 14 14 13 13 13 13 13 13 13 13 13 13 13 13 13 13 12 12 12 12 11 11 11
16 15 15 15 15 15 15 14 14 14 14 14 14 14 14 14 14 14 14 14 14 14 13 13 13 13 13 13 13 13 13 13 13 13 13 13 12 12 12 11 11 11 11
16 16 15 15 15 15 15 15 14 14 14 14 14 14 14 14 14 14 14 14 14 14 13 13 13 13 13 13 12 12 13 13 13 13 13 12 12 12 11 11 11 10 10
16 16 16 15 15 15 15 15 15 15 15 15 15 15 15 14 14 14 14 14 14 14 14 13 13 13 13 12 12 11 11 12 12 12 12 12 12 11 11 10 10 10 10
16 16 16 16 15 15 15 15 15 15 15 15 15 15 15 15 14 14 14 14 14 14 13 13 13 12 12 12 11 11 11 11 12 12 11 11 11 10 10 10 9 9 9
16 16 16 16 16 15 15 15 15 15 15 15 15 15 15 15 14 14 14 14 14 13 13 13 12 12 11 11 11 11 11 10 10 10 10 10 10 10 10 9 9 8 8
16 16 16 16 16 16 15 15 15 15 15 15 14 14 14 14 14 14 14 14 13 13 13 12 12 11 11 11 10 10 10 10 10 10 10 10 10 9 9 9 8 8 7
15 15 15 15 15 15 15 15 15 15 15 14 14 14 14 14 13 13 13 13 13 12 12 12 11 11 10 10 10 10 9 9 9 9 9 9 9 9 8 8 8 7 7
Wind_Speed
13 18 20 19 17 16 16 15 14 14 13 13 13 14 15 16 17 17 17 18 19 20 21 20 20 19 19 18 17 16 15 14 14 14 16 16 16 16 18 18 15 14 15
17 21 21 19 18 17 16 16 15 14 13 13 14 15 15 16 16 16 17 17 19 19 20 19 18 18 17 17 16 14 12 10 9 8 10 15 16 15 16 17 16 14 15
19 21 20 19 18 17 17 16 15 14 13 13 14 15 16 16 16 16 16 17 18 18 18 17 17 16 15 15 14 12 9 7 6 6 2 10 15 15 15 15 15 15 15
20 21 19 20 18 18 17 16 14 14 13 13 15 15 16 16 16 16 16 17 17 17 16 15 15 14 14 13 12 10 8 8 10 10 12 15 14 14 15 15 16 16 16
17 19 21 20 19 18 17 16 14 13 13 14 15 15 16 16 16 15 15 15 15 15 14 14 13 13 12 12 11 9 8 9 11 8 14 16 14 14 14 14 14 15 15
15 20 21 20 19 18 17 15 14 13 13 14 15 16 16 17 16 15 14 14 13 13 12 12 12 12 11 11 10 8 9 11 9 11 15 16 13 12 13 13 13 14 14
15 20 20 20 19 18 17 15 14 13 13 14 15 16 16 16 15 14 13 12 11 11 11 10 10 10 10 10 9 8 10 13 7 10 14 14 11 11 11 12 12 13 13
15 18 19 20 19 18 16 15 14 13 12 13 14 15 16 15 14 13 12 11 10 9 9 9 8 8 8 8 7 7 8 10 8 8 14 12 9 9 9 10 10 11 11
14 15 16 17 17 17 17 15 14 13 12 13 14 15 15 14 13 12 11 10 9 8 7 7 7 6 6 5 5 5 8 10 9 3 10 11 8 7 7 7 8 9 9
11 12 13 16 16 15 15 15 15 14 13 13 14 15 15 14 13 12 11 9 8 7 6 5 4 3 2 2 2 4 7 10 7 3 10 9 7 5 4 5 5 6 7
8 10 10 12 15 16 15 14 15 14 13 13 13 13 13 13 13 11 12 10 7 6 5 4 2 1 2 3 3 4 8 10 3 5 9 8 5 3 2 2 3 4 5
7 7 8 8 11 14 14 14 13 12 12 12 12 12 11 8 10 12 13 10 8 6 5 5 4 5 7 7 7 6 8 7 6 2 9 8 5 3 3 2 1 1 2
8 6 6 7 9 11 10 11 10 11 12 11 14 14 8 8 9 12 11 10 9 9 8 8 8 9 10 4 3 7 5 4 7 4 8 8 5 4 5 5 4 3 2
9 7 7 6 7 9 10 8 8 8 8 6 8 9 7 5 4 6 7 11 11 11 10 9 10 10 8 7 7 7 4 5 7 4 7 8 7 7 8 8 7 7 5
9 8 7 6 6 7 7 6 6 6 7 7 6 5 6 6 3 3 3 4 5 6 6 5 6 5 3 3 4 5 5 7 7 7 6 10 10 10 10 11 11 10 9
9 9 8 7 6 7 5 4 4 6 6 7 9 7 6 6 5 2 2 3 3 3 3 4 6 4 2 3 3 5 7 8 9 10 9 11 13 13 13 13 13 13 12
9 9 9 8 6 7 6 6 6 6 7 5 7 9 7 6 6 4 2 2 4 5 5 5 5 3 2 2 3 6 7 7 7 9 10 10 11 15 16 15 14 14 13
9 9 9 8 8 7 6 6 5 6 7 6 6 7 8 8 7 5 3 3 5 5 4 2 2 3 3 3 4 4 4 5 7 9 10 10 10 10 12 14 14 14 13
7 8 9 8 8 7 6 5 5 5 5 6 6 6 6 7 7 5 4 4 5 4 3 2 3 3 3 4 4 4 4 4 5 8 8 10 9 6 4 5 9 12 13
5 7 8 8 8 7 6 4 4 3 3 5 5 5 5 4 5 4 3 4 4 2 2 3 4 3 3 4 4 5 5 6 5 6 6 7 5 3 1 1 2 5 8
5 5 7 8 8 6 5 5 5 4 3 3 3 4 4 3 3 3 2 3 3 3 4 4 3 4 4 3 3 4 6 8 9 7 4 1 1 2 2 2 2 3 4
6 6 6 7 7 6 5 4 4 4 3 3 3 3 3 1 1 0 1 1 2 3 4 4 3 3 3 3 3 3 4 4 4 3 2 2 1 2 3 4 4 4 5
6 6 5 6 6 5 5 4 3 3 2 2 3 2 3 3 2 2 2 2 2 2 3 4 3 4 4 3 4 4 3 3 3 3 0 1 1 2 2 4 5 6 6
6 4 4 4 5 5 5 5 6 5 4 3 3 3 3 4 3 4 4 3 3 2 3 3 3 3 3 4 3 4 5 3 2 3 2 1 1 2 2 3 5 8 10
7 5 4 4 4 4 4 4 4 4 4 4 4 3 2 2 3 4 4 4 3 2 3 3 4 3 3 4 3 3 4 3 4 4 3 3 1 1 2 3 6 9 12
7 5 5 5 5 5 5 4 5 6 6 5 4 2 1 1 2 3 4 4 3 3 3 3 4 4 3 3 3 3 3 2 3 3 4 3 2 1 2 4 5 8 11
Wind_Direction
128 138 143 139 135 131 126 121 115 109 103 99 96 93 88 82 78 77 77 80 82 84 84 83 81 79 78 76 75 75 76 80 81 79 76 69 60 54 49 49 65 57 57
131 138 143 141 138 133 127 121 115 109 105 103 101 96 90 85 82 80 80 83 85 85 85 83 81 79 78 76 75 74 75 76 74 72 80 74 65 57 55 54 57 55 51
129 138 143 141 139 133 127 121 116 111 108 107 105 100 94 89 86 84 83 84 85 84 83 82 80 79 77 76 74 71 65 48 28 6 49 92 70 60 59 58 56 53 52
130 140 144 141 139 134 128 123 119 115 112 110 109 104 99 94 90 88 87 85 85 84 83 82 80 78 76 74 71 65 47 18 3 11 70 80 73 65 62 61 58 54 51
132 139 137 141 138 134 130 127 122 118 115 113 112 108 103 99 94 92 90 89 88 87 85 82 78 74 72 70 66 52 26 4 351 45 79 83 74 69 64 61 57 54 50
130 128 136 138 137 135 132 129 124 120 118 117 117 113 107 103 99 97 96 94 92 90 86 81 76 70 66 64 59 39 10 358 13 69 79 82 75 70 64 62 59 54 49
127 128 138 137 138 136 133 129 123 120 120 120 120 117 113 108 105 104 102 100 97 92 87 80 74 67 61 58 50 27 2 353 23 79 86 85 79 72 67 63 59 53 48
123 129 137 138 138 137 134 130 124 121 121 123 122 121 117 114 112 110 107 105 101 95 88 82 75 67 59 53 42 16 356 353 4 76 101 97 88 79 73 68 60 53 47
124 131 138 140 139 138 135 130 125 120 119 121 122 121 120 119 119 116 113 108 104 99 94 88 80 71 62 52 33 2 343 336 335 40 103 105 99 89 78 71 63 53 49
127 137 144 148 146 143 136 131 125 121 117 119 121 125 128 131 131 131 123 115 111 107 103 96 88 79 67 44 6 333 321 317 308 86 104 109 104 100 90 77 65 56 51
135 142 148 152 152 150 142 135 129 127 127 128 130 141 150 157 153 146 132 129 126 127 127 127 134 190 244 253 266 293 299 298 312 95 113 124 121 124 124 101 70 58 54
145 142 145 147 148 145 142 147 149 149 155 166 159 171 198 181 141 138 140 145 152 162 172 187 207 237 247 240 233 263 280 302 323 134 140 143 149 181 195 196 184 101 63
150 139 134 132 137 135 142 158 160 159 171 197 170 183 194 125 127 146 158 167 181 192 202 207 220 235 241 212 209 255 264 323 316 315 155 159 174 212 232 233 229 227 222
152 147 141 131 131 140 147 150 151 152 170 178 161 176 161 140 157 174 175 181 190 197 204 195 222 228 221 216 225 252 268 244 260 270 171 185 199 219 241 246 242 240 237
151 154 150 148 143 143 142 150 160 164 165 167 162 179 160 144 176 197 210 175 206 202 181 206 250 261 247 259 259 260 269 272 271 271 230 210 218 225 235 246 250 248 243
156 160 160 165 159 150 146 157 165 169 165 168 160 183 189 173 182 192 229 180 232 230 225 227 250 255 260 268 278 283 271 263 260 260 255 231 227 232 235 242 249 253 253
164 167 168 173 170 162 165 175 172 171 170 174 166 185 192 196 187 192 237 211 225 230 235 240 273 293 294 290 281 275 272 270 272 274 272 254 235 234 238 242 248 254 258
165 166 167 172 173 172 170 173 169 179 173 175 178 185 191 206 203 200 214 235 243 240 236 230 264 279 268 265 269 278 284 285 276 276 277 274 257 240 236 241 248 255 261
163 161 161 165 173 175 172 166 173 181 173 172 177 181 192 205 207 204 214 236 249 242 233 233 238 245 266 276 277 281 285 284 278 278 273 272 268 250 229 241 251 255 260
157 161 162 164 174 174 165 165 166 175 171 169 168 173 184 203 217 221 227 244 257 249 244 242 250 248 246 258 278 280 272 265 260 254 254 263 265 246 222 284 280 271 269
165 167 167 167 173 166 163 167 166 173 177 177 164 168 179 201 214 219 238 254 261 256 254 255 254 259 257 249 277 285 271 255 248 242 225 216 80 93 98 67 35 15 352
169 174 171 167 167 166 164 162 159 157 162 157 136 128 116 91 50 287 276 275 277 274 275 272 263 256 251 223 219 274 300 305 285 239 167 131 97 91 98 88 66 41 23
162 168 165 157 153 154 151 144 128 110 105 130 143 131 100 79 41 2 327 314 303 282 273 276 274 258 258 251 216 221 253 268 332 335 357 125 125 89 81 84 70 52 47
141 125 129 130 132 136 141 155 162 162 169 150 128 115 99 85 60 28 11 352 330 311 292 285 285 271 257 261 260 235 231 234 254 296 314 330 71 91 77 73 66 61 57
127 124 124 123 123 126 135 147 153 140 123 108 98 105 108 104 86 50 22 2 345 328 319 312 304 293 268 255 250 255 255 251 230 229 265 292 318 25 67 74 72 66 58
130 137 143 145 135 126 124 123 121 121 117 120 118 121 111 105 99 71 32 7 356 349 338 328 315 302 291 282 272 256 242 238 230 221 235 248 255 292 62 69 73 70 62
Height
1530 1534 1536 1539 1542 1544 1546 1547 1548 1549 1550 1551 1551 1552 1553 1554 1554 1554 1555 1556 1557 1558 1559 1560 1560 1561 1561 1561 1561 1561 1561 1561 1561 1561 1561 1561 1560 1560 1560 1560 1559 1559 1559
1529 1533 1537 1540 1542 1545 1547 1548 1549 1550 1551 1552 1553 1554 1555 1556 1556 1556 1557 1558 1559 1560 1561 1561 1562 1562 1563 1563 1563 1563 1563 1563 1563 1563 1563 1563 1563 1563 1562 1562 1562 1561 1561
1529 1533 1537 1540 1543 1545 1547 1549 1550 1551 1552 1553 1555 1556 1557 1558 1558 1558 1559 1560 1561 1562 1563 1563 1564 1565 1565 1565 1565 1566 1566 1566 1566 1565 1565 1565 1565 1565 1565 1564 1564 1563 1563
1530 1534 1537 1541 1544 1546 1548 1550 1551 1552 1554 1555 1556 1558 1559 1560 1560 1560 1561 1562 1563 1564 1565 1566 1566 1567 1567 1568 1568 1568 1568 1568 1568 1568 1568 1568 1567 1567 1567 1566 1566 1565 1564
1531 1535 1538 1541 1544 1547 1549 1551 1552 1553 1555 1556 1558 1559 1560 1561 1562 1563 1564 1565 1565 1566 1567 1568 1569 1569 1570 1570 1570 1570 1570 1570 1570 1570 1570 1569 1569 1569 1568 1568 1567 1566 1566
1532 1535 1539 1542 1545 1547 1550 1552 1553 1555 1556 1558 1559 1561 1562 1563 1564 1565 1566 1567 1568 1569 1570 1570 1571 1571 1572 1572 1572 1572 1572 1572 1572 1572 1571 1571 1571 1570 1570 1569 1568 1567 1566
1533 1535 1540 1543 1546 1548 1550 1552 1554 1556 1558 1559 1561 1562 1563 1565 1566 1567 1568 1569 1570 1571 1572 1572 1573 1573 1573 1573 1574 1574 1574 1573 1573 1573 1573 1572 1572 1571 1571 1570 1569 1568 1567
1534 1536 1540 1543 1546 1549 1551 1553 1555 1557 1559 1560 1562 1563 1565 1566 1567 1569 1570 1571 1572 1573 1573 1574 1574 1575 1575 1575 1575 1575 1575 1575 1574 1575 1574 1574 1573 1572 1571 1571 1570 1569 1567
1535 1537 1540 1543 1547 1549 1551 1554 1556 1557 1559 1561 1563 1564 1566 1567 1568 1570 1571 1572 1573 1574 1575 1575 1576 1576 1576 1576 1576 1576 1576 1576 1576 1576 1575 1574 1574 1573 1572 1571 1570 1569 1568
1537 1539 1541 1544 1547 1549 1552 1554 1556 1558 1560 1562 1563 1565 1566 1568 1569 1570 1572 1573 1574 1575 1576 1576 1576 1577 1577 1577 1577 1577 1577 1577 1576 1576 1575 1575 1574 1573 1572 1571 1570 1569 1568
1538 1540 1542 1545 1547 1550 1552 1554 1556 1558 1560 1562 1564 1565 1567 1568 1569 1570 1572 1573 1574 1575 1576 1576 1577 1577 1577 1577 1577 1577 1577 1577 1577 1576 1576 1575 1574 1573 1572 1571 1570 1569 1568
1538 1541 1543 1546 1548 1550 1552 1554 1556 1558 1560 1562 1564 1566 1567 1568 1569 1570 1572 1573 1574 1575 1575 1576 1576 1576 1577 1576 1576 1577 1576 1576 1576 1576 1575 1574 1574 1573 1571 1571 1570 1569 1568
1538 1541 1543 1546 1548 1550 1552 1554 1556 1558 1560 1562 1564 1566 1567 1569 1570 1570 1571 1572 1573 1574 1574 1575 1576 1576 1576 1576 1576 1576 1576 1576 1576 1575 1574 1573 1572 1572 1570 1569 1569 1568 1567
1537 1540 1543 1545 1548 1550 1552 1554 1556 1558 1560 1562 1564 1565 1567 1568 1569 1570 1570 1571 1572 1573 1573 1574 1574 1575 1575 1576 1575 1575 1575 1574 1574 1574 1572 1572 1571 1570 1569 1568 1567 1566 1565
1536 1539 1542 1544 1547 1549 1551 1554 1556 1558 1560 1561 1563 1564 1566 1567 1568 1569 1570 1571 1572 1572 1573 1573 1574 1574 1575 1575 1574 1574 1573 1573 1572 1572 1571 1570 1569 1568 1567 1566 1565 1564 1563
1534 1537 1540 1543 1546 1548 1550 1553 1555 1557 1559 1560 1561 1563 1564 1565 1567 1568 1569 1570 1571 1571 1572 1572 1572 1573 1573 1573 1572 1572 1571 1571 1570 1570 1569 1568 1567 1566 1565 1564 1563 1562 1561
1532 1535 1537 1540 1543 1546 1549 1551 1554 1555 1557 1559 1560 1561 1563 1564 1565 1566 1567 1568 1569 1570 1570 1570 1571 1571 1571 1570 1570 1570 1569 1568 1568 1567 1566 1565 1564 1563 1562 1561 1561 1560 1559
1530 1533 1535 1538 1541 1544 1547 1549 1552 1554 1555 1557 1559 1560 1561 1563 1564 1565 1566 1567 1567 1568 1568 1568 1568 1568 1568 1568 1567 1567 1566 1565 1564 1563 1562 1562 1561 1560 1558 1558 1557 1556 1556
1528 1531 1533 1536 1539 1542 1545 1547 1550 1552 1554 1555 1557 1558 1559 1561 1562 1563 1564 1565 1565 1566 1566 1566 1566 1565 1565 1564 1564 1563 1562 1561 1560 1559 1558 1558 1557 1556 1555 1554 1553 1552 1552
1526 1529 1531 1533 1536 1539 1542 1545 1547 1549 1551 1553 1554 1556 1557 1559 1560 1561 1561 1562 1563 1563 1563 1563 1563 1562 1562 1561 1560 1559 1558 1557 1556 1555 1554 1553 1553 1552 1552 1551 1550 1549 1548
1524 1526 1529 1531 1534 1536 1539 1541 1544 1546 1549 1550 1552 1554 1555 1556 1557 1558 1558 1559 1559 1559 1559 1559 1559 1558 1558 1557 1556 1554 1552 1552 1551 1550 1550 1550 1550 1549 1548 1547 1546 1545 1544
1521 1524 1526 1529 1531 1534 1536 1539 1541 1544 1546 1548 1549 1551 1552 1553 1554 1554 1555 1555 1555 1555 1555 1555 1555 1554 1553 1553 1552 1550 1548 1548 1546 1547 1547 1547 1547 1546 1545 1544 1543 1542 1541
1518 1521 1523 1526 1529 1532 1534 1537 1539 1541 1543 1545 1546 1548 1549 1550 1550 1551 1551 1551 1551 1550 1550 1550 1550 1549 1548 1548 1548 1548 1547 1544 1544 1544 1544 1544 1544 1543 1542 1541 1540 1539 1537
1515 1518 1520 1523 1526 1528 1531 1533 1535 1537 1539 1541 1543 1544 1545 1546 1546 1547 1547 1546 1546 1545 1545 1545 1544 1544 1543 1543 1543 1543 1543 1542 1542 1540 1541 1541 1541 1540 1539 1538 1536 1535 1534
1512 1515 1517 1520 1523 1525 1528 1530 1532 1534 1536 1537 1539 1540 1541 1541 1542 1542 1542 1541 1541 1540 1539 1539 1538 1538 1538 1538 1538 1538 1537 1537 1537 1537 1536 1537 1537 1537 1535 1534 1533 1531 1530
1509 1512 1514 1517 1519 1521 1524 1526 1528 1530 1532 1534 1535 1536 1537 1537 1537 1537 1537 1536 1535 1535 1534 1533 1533 1532 1532 1532 1532 1532 1532 1532 1532 1532 1532 1532 1533 1533 1532 1531 1529 1528 1527